Location: Unspecified
(17.6330°N, 0.0000°E)
Time: 09:58:40
(UTC+00:00)

Courier 1B Rocket - Pass Details

Date: 26 June 2019
Orbit: 920 x 1202 km, 28.3° (Epoch: 24 August)

Event Time Altitude Azimuth Distance (km) Brightness Sun altitude
Exits shadow 01:43:32 32° 54° (NE) 1,775 6.6 -42.2°
Drops below altitude 10° 01:47:05 10° 62° (ENE) 2,891 8.0 -41.7°
Sets 01:49:44 0° 65° (ENE) 3,804 8.7 -41.4°
